Total_Precipitation_Accumulation
1.75 1.83 1.55 1.47 1.44 1.64 1.89 1.85 1.73 1.78 1.88 1.90 1.73 1.64 1.46 1.15 1.01 1.00 1.10 1.40 1.40 1.38 1.55 1.58 1.52 1.43 1.29 1.13 1.03 0.94 0.90 0.86 0.75 0.60 0.52 0.41 0.31 0.28 0.18 0.12 0.09 0.07 0.06
1.66 1.54 1.53 1.53 1.45 1.60 1.65 1.73 1.77 1.92 1.96 2.06 1.78 1.66 1.52 1.38 1.26 1.21 1.16 1.40 1.39 1.29 1.38 1.58 1.62 1.62 1.61 1.43 1.24 1.15 1.03 0.97 0.83 0.64 0.55 0.48 0.40 0.34 0.28 0.22 0.21 0.14 0.09
1.55 1.57 1.50 1.39 1.43 1.53 1.61 1.68 1.71 1.78 1.68 1.74 1.65 1.62 1.57 1.46 1.40 1.30 1.21 1.17 1.06 1.19 1.32 1.46 1.55 1.56 1.65 1.61 1.55 1.45 1.23 1.04 0.89 0.69 0.54 0.49 0.45 0.38 0.32 0.28 0.28 0.23 0.17
1.31 1.35 1.24 1.23 1.33 1.26 1.25 1.30 1.28 1.32 1.34 1.47 1.44 1.32 1.31 1.32 1.30 1.30 1.19 1.05 1.00 0.85 1.12 1.43 1.55 1.44 1.56 1.71 1.82 1.83 1.48 1.11 0.89 0.76 0.61 0.50 0.47 0.38 0.29 0.23 0.22 0.25 0.20
0.79 0.84 0.81 0.84 0.91 0.92 0.92 0.90 1.05 1.12 1.16 1.27 1.31 1.13 1.08 1.17 1.19 1.19 1.12 0.93 0.98 0.90 0.86 1.08 1.31 1.29 1.50 1.78 2.02 2.06 1.83 1.40 1.04 0.90 0.78 0.66 0.60 0.46 0.32 0.26 0.22 0.19 0.17
0.62 0.59 0.57 0.58 0.57 0.61 0.67 0.71 0.74 0.84 0.87 0.92 0.93 0.89 0.92 0.87 0.94 0.96 0.87 0.86 0.81 0.70 0.70 0.87 1.14 1.03 1.30 1.62 1.83 1.95 1.99 1.85 1.47 1.16 0.99 0.92 0.86 0.66 0.40 0.30 0.26 0.22 0.17
0.44 0.46 0.41 0.41 0.40 0.39 0.41 0.45 0.52 0.57 0.60 0.69 0.73 0.68 0.63 0.60 0.64 0.64 0.65 0.71 0.67 0.67 0.71 0.79 0.92 0.97 0.95 1.09 1.25 1.51 1.88 2.04 1.87 1.54 1.28 1.10 1.04 0.88 0.56 0.39 0.30 0.28 0.27
0.30 0.30 0.30 0.31 0.31 0.30 0.30 0.33 0.36 0.37 0.40 0.51 0.58 0.60 0.52 0.49 0.47 0.42 0.50 0.48 0.50 0.67 0.71 0.69 0.77 0.92 0.93 1.06 0.90 1.04 1.50 1.87 2.10 1.98 1.69 1.38 1.16 0.97 0.75 0.58 0.42 0.33 0.32
0.22 0.23 0.23 0.24 0.27 0.28 0.29 0.33 0.32 0.33 0.32 0.34 0.44 0.56 0.52 0.44 0.37 0.35 0.38 0.43 0.50 0.59 0.62 0.72 0.73 0.73 0.76 0.91 1.07 1.08 1.18 1.36 1.86 2.22 2.13 1.69 1.27 0.99 0.87 0.80 0.68 0.55 0.43
0.18 0.17 0.17 0.16 0.18 0.23 0.29 0.29 0.34 0.34 0.32 0.26 0.30 0.39 0.44 0.46 0.46 0.39 0.37 0.39 0.49 0.55 0.57 0.60 0.62 0.70 0.83 0.94 1.05 1.07 0.93 0.99 1.38 1.85 2.10 1.96 1.55 1.19 0.97 0.95 1.06 0.99 0.74
0.18 0.18 0.18 0.17 0.15 0.16 0.20 0.23 0.31 0.35 0.36 0.31 0.29 0.33 0.36 0.38 0.41 0.41 0.32 0.31 0.38 0.37 0.41 0.47 0.59 0.65 0.75 0.95 1.15 1.03 0.84 0.79 0.95 1.29 1.58 1.71 1.66 1.40 1.13 1.04 1.26 1.39 1.18
0.18 0.17 0.18 0.19 0.19 0.18 0.15 0.15 0.20 0.27 0.34 0.36 0.32 0.30 0.37 0.39 0.39 0.42 0.31 0.24 0.28 0.25 0.28 0.32 0.44 0.57 0.72 0.88 0.90 0.90 0.91 0.85 0.86 0.94 1.09 1.26 1.42 1.41 1.32 1.33 1.48 1.64 1.64
0.16 0.16 0.17 0.18 0.19 0.20 0.19 0.17 0.16 0.19 0.26 0.32 0.31 0.32 0.34 0.33 0.40 0.41 0.33 0.27 0.30 0.31 0.41 0.40 0.45 0.63 0.70 0.91 0.89 0.90 0.90 0.86 0.75 0.70 0.74 0.83 0.95 1.13 1.29 1.36 1.51 1.66 1.79
0.22 0.21 0.16 0.15 0.17 0.18 0.18 0.18 0.17 0.17 0.21 0.26 0.28 0.38 0.37 0.29 0.36 0.38 0.39 0.44 0.43 0.45 0.52 0.50 0.59 0.83 1.04 1.07 1.06 0.94 0.77 0.74 0.65 0.60 0.56 0.58 0.64 0.75 0.86 0.98 1.12 1.23 1.35
0.23 0.21 0.18 0.15 0.15 0.16 0.17 0.18 0.18 0.20 0.23 0.26 0.32 0.41 0.42 0.39 0.40 0.41 0.45 0.56 0.62 0.54 0.54 0.64 0.76 0.85 0.95 0.96 0.96 0.85 0.68 0.68 0.61 0.55 0.50 0.47 0.48 0.53 0.60 0.64 0.69 0.76 0.83
0.19 0.18 0.17 0.14 0.12 0.14 0.16 0.17 0.19 0.23 0.26 0.32 0.39 0.45 0.51 0.51 0.51 0.51 0.52 0.60 0.73 0.71 0.66 0.67 0.75 0.76 0.76 0.62 0.64 0.64 0.61 0.63 0.55 0.50 0.48 0.45 0.42 0.43 0.46 0.51 0.54 0.56 0.59
0.18 0.16 0.16 0.15 0.13 0.13 0.15 0.18 0.20 0.22 0.25 0.32 0.38 0.44 0.48 0.55 0.62 0.63 0.68 0.70 0.73 0.84 0.78 0.66 0.77 0.86 0.78 0.60 0.51 0.51 0.53 0.53 0.51 0.50 0.47 0.46 0.44 0.43 0.42 0.41 0.45 0.49 0.48
0.16 0.16 0.16 0.14 0.11 0.11 0.15 0.19 0.22 0.23 0.25 0.29 0.36 0.46 0.50 0.52 0.58 0.65 0.76 0.79 0.81 0.93 0.93 0.78 0.85 0.94 0.86 0.74 0.61 0.53 0.44 0.43 0.44 0.48 0.47 0.48 0.47 0.44 0.42 0.40 0.38 0.37 0.37
0.17 0.17 0.17 0.15 0.13 0.12 0.13 0.15 0.20 0.23 0.28 0.29 0.34 0.42 0.50 0.58 0.61 0.65 0.75 0.79 0.85 1.00 1.05 0.96 0.96 1.06 1.09 0.88 0.66 0.51 0.42 0.42 0.39 0.43 0.45 0.47 0.47 0.44 0.40 0.39 0.40 0.36 0.32
0.16 0.19 0.21 0.21 0.19 0.17 0.16 0.14 0.14 0.17 0.22 0.27 0.36 0.39 0.43 0.55 0.64 0.69 0.77 0.88 0.96 1.05 1.12 1.10 1.13 1.24 1.24 1.10 0.85 0.58 0.48 0.45 0.43 0.39 0.42 0.42 0.43 0.41 0.38 0.34 0.33 0.33 0.33
0.23 0.29 0.31 0.29 0.28 0.23 0.16 0.14 0.16 0.15 0.17 0.20 0.27 0.34 0.35 0.40 0.50 0.62 0.70 0.81 0.98 1.13 1.28 1.34 1.35 1.50 1.46 1.26 0.99 0.70 0.58 0.52 0.49 0.46 0.43 0.37 0.35 0.33 0.31 0.31 0.30 0.30 0.29
0.39 0.41 0.39 0.39 0.38 0.28 0.22 0.18 0.17 0.17 0.18 0.21 0.25 0.31 0.32 0.31 0.34 0.40 0.50 0.64 0.79 0.96 1.16 1.35 1.47 1.57 1.62 1.48 1.28 1.03 0.72 0.53 0.49 0.50 0.48 0.46 0.42 0.38 0.34 0.30 0.31 0.29 0.29
0.45 0.47 0.46 0.46 0.44 0.41 0.31 0.22 0.17 0.17 0.20 0.24 0.27 0.30 0.25 0.21 0.28 0.32 0.37 0.44 0.54 0.65 0.81 1.02 1.22 1.32 1.49 1.61 1.48 1.19 0.91 0.70 0.56 0.54 0.52 0.48 0.47 0.45 0.42 0.38 0.40 0.34 0.30
0.58 0.55 0.52 0.52 0.53 0.49 0.39 0.28 0.23 0.21 0.23 0.25 0.28 0.30 0.30 0.27 0.30 0.36 0.41 0.40 0.40 0.43 0.51 0.63 0.78 1.02 1.22 1.44 1.49 1.38 1.28 1.03 0.79 0.63 0.58 0.51 0.44 0.42 0.43 0.41 0.41 0.37 0.34
0.64 0.63 0.64 0.66 0.66 0.64 0.51 0.34 0.28 0.28 0.31 0.30 0.32 0.35 0.39 0.35 0.30 0.27 0.35 0.36 0.35 0.35 0.35 0.43 0.56 0.77 1.02 1.20 1.38 1.38 1.27 1.13 0.91 0.68 0.55 0.49 0.41 0.40 0.39 0.36 0.36 0.37 0.35
0.62 0.65 0.69 0.74 0.77 0.74 0.63 0.41 0.34 0.33 0.37 0.38 0.43 0.45 0.42 0.34 0.31 0.23 0.29 0.34 0.33 0.32 0.37 0.38 0.45 0.55 0.69 0.93 1.14 1.17 1.08 1.01 0.88 0.68 0.50 0.45 0.39 0.38 0.40 0.32 0.26 0.27 0.29